Dewpoint
28 28 28 29 30 32 30 28 24 24 25 26 27 27 28 30 34 38 36 34 36 41 41 39 36 34 31 29 28 30 28 30 28 28 25 25 25 24 24 24 23 25 22 22
21 23 24 22 23 24 26 30 30 29 26 28 29 30 37 36 36 36 34 35 42 41 37 36 34 30 27 26 26 26 25 25 22 19 18 19 19 19 19 19 19 20 19 20
17 26 25 23 25 25 22 23 22 19 22 28 29 34 35 37 36 34 33 41 40 37 36 34 29 26 25 24 23 19 22 16 14 14 14 15 15 16 16 15 17 16 16 18
23 25 21 25 28 28 26 27 27 27 29 32 35 35 35 36 37 33 40 39 37 35 32 30 26 24 22 20 16 13 15 11 12 13 13 13 13 13 13 13 13 12 14 14
25 25 26 28 30 29 28 30 33 33 34 36 35 35 35 38 37 38 39 37 35 32 30 26 21 19 14 11 9 9 10 11 12 13 12 13 12 12 12 12 12 13 13 13
25 23 23 27 31 32 30 24 35 36 35 37 37 33 34 38 39 39 36 34 32 30 26 21 16 10 7 8 8 8 10 12 13 14 13 12 13 13 13 13 13 14 13 14
28 25 27 30 32 32 25 23 36 37 36 36 36 36 37 38 36 35 33 32 28 25 21 16 9 7 8 9 8 9 12 13 14 14 14 13 13 14 14 14 14 15 14 14
28 25 22 33 34 31 32 36 34 34 34 35 37 38 37 37 35 34 32 27 24 21 16 10 9 9 8 8 9 11 13 14 14 14 14 13 14 14 15 15 15 15 15 17
29 28 33 34 34 34 35 33 34 35 34 34 37 37 37 37 36 35 29 22 18 16 14 11 11 10 9 10 12 12 13 14 14 14 14 14 15 15 15 16 16 16 17 20
31 33 34 33 34 34 35 34 35 35 35 35 34 36 36 36 35 32 26 18 17 14 11 10 11 10 11 12 13 14 14 14 15 14 16 16 16 16 15 16 17 18 21 22
33 34 34 34 34 35 35 35 36 36 35 34 34 34 34 35 35 28 21 17 15 13 12 11 11 11 12 13 14 14 15 15 14 16 16 16 16 16 16 17 21 22 22 23
32 34 34 34 35 36 35 35 35 34 33 34 34 34 35 34 27 21 16 15 13 13 12 12 12 13 14 15 16 16 15 15 16 17 16 17 16 15 22 24 26 26 26 24
34 35 34 35 35 34 34 35 34 33 32 33 36 35 33 20 15 16 12 12 12 12 13 14 14 14 15 16 17 17 16 15 16 18 16 16 16 17 19 22 25 25 25 25
35 35 34 34 34 34 34 35 36 36 36 36 35 29 21 16 12 11 11 12 13 13 14 14 15 15 15 16 17 17 16 21 18 17 18 18 19 20 20 19 19 19 22 24
35 35 34 33 32 33 35 34 33 32 32 33 29 22 14 11 11 12 13 13 14 14 14 15 14 14 16 16 16 16 16 17 18 19 19 21 20 20 19 20 19 18 19 22
33 30 28 32 33 32 34 33 33 32 32 28 22 14 12 12 12 13 13 14 13 13 13 14 14 14 16 16 16 17 17 21 21 18 19 19 19 20 19 19 19 19 21 20
28 25 23 24 32 32 32 33 32 33 31 22 14 12 12 12 13 13 13 13 13 14 14 14 14 15 16 16 17 18 18 19 22 18 19 19 19 19 19 21 22 20 19 21
29 28 29 31 32 32 32 31 32 27 19 14 12 12 12 12 11 12 12 13 13 14 14 14 15 16 17 18 18 19 19 19 18 18 19 19 19 20 20 19 20 21 20 20
31 29 29 31 31 31 31 30 25 16 14 12 12 12 12 12 13 13 13 13 12 12 12 13 18 19 17 19 20 18 18 18 18 19 19 22 21 22 23 21 20 20 21 19
25 25 26 30 30 29 26 19 16 12 11 12 12 12 12 12 12 13 13 13 14 13 15 16 17 17 17 17 20 18 19 19 20 20 20 19 19 20 21 21 20 20 18 17
25 22 17 21 23 19 19 14 12 10 11 13 13 12 12 13 13 13 12 12 12 15 16 19 17 17 16 18 19 19 19 19 19 19 19 19 19 19 19 19 17 17 17 17
25 24 20 15 12 10 11 11 11 12 13 13 14 13 13 13 13 14 14 14 14 19 17 16 16 18 18 22 19 19 18 18 16 15 15 16 16 17 17 17 17 18 18 19
26 26 23 17 13 12 11 13 14 14 14 14 14 13 13 13 14 13 12 13 16 17 16 15 18 21 22 18 17 16 15 14 14 14 15 16 17 17 18 18 19 21 20 20
25 26 25 19 14 12 11 13 15 15 15 14 15 15 15 14 14 15 15 17 18 17 15 16 17 21 21 16 14 13 14 14 15 16 16 19 18 19 19 20 20 20 20 20
23 20 16 14 15 15 15 16 14 13 14 13 12 12 13 14 14 13 13 14 17 16 13 17 18 19 13 13 13 14 14 15 16 18 19 18 17 18 19 20 20 20 21 21
22 23 21 17 17 17 17 15 14 13 12 13 13 13 13 13 14 14 13 14 12 14 10 10 11 12 13 13 13 14 14 15 15 15 17 17 17 18 19 20 20 20 20 19
16 20 16 18 16 15 14 13 12 13 12 12 12 13 14 13 12 12 13 9 9 9 10 11 12 13 13 14 14 14 14 15 17 17 18 19 18 18 18 19 19 20 20 19
Lifted_Index
2 3 3 3 4 4 4 4 4 4 5 5 6 7 7 7 7 6 6 6 7 7 8 8 9 10 12 13 13 13 14 15 17 19 20 21 21 21 21 20 20 19 18 17
2 3 3 3 4 4 5 5 5 4 5 5 6 6 6 6 6 6 6 6 7 8 8 9 9 10 11 12 13 14 15 17 19 20 21 21 21 20 20 19 18 18 17 16
2 2 3 3 3 4 4 5 5 4 5 5 5 6 6 6 6 6 7 7 8 8 9 10 10 11 11 12 13 15 17 19 20 21 21 20 19 19 18 17 17 16 15 15
2 2 2 3 3 3 4 4 5 5 5 5 5 6 6 6 7 7 7 8 8 9 10 10 11 11 12 13 15 17 18 20 20 20 19 18 17 17 16 16 15 15 15 15
2 2 2 3 4 4 4 4 5 5 5 5 6 6 7 7 7 8 8 8 9 9 10 11 11 12 13 14 16 18 19 19 19 18 17 16 15 15 15 16 16 16 16 15
3 2 3 4 4 4 4 4 5 6 6 6 6 7 7 8 8 8 8 8 9 10 10 11 12 12 14 15 17 18 18 18 17 16 16 15 15 15 16 16 16 16 16 16
3 2 3 5 5 5 4 5 6 6 7 7 7 8 8 8 9 9 9 9 10 10 11 12 12 14 15 17 18 18 17 16 16 15 15 15 15 15 16 16 16 16 15 15
4 3 4 5 6 6 5 6 6 7 7 8 8 9 9 9 9 9 9 10 10 11 12 13 14 16 17 18 18 17 16 15 15 15 15 15 15 15 15 15 15 15 15 15
5 4 5 5 6 6 6 6 7 7 8 9 9 9 10 10 10 10 10 11 11 12 12 14 16 18 19 18 17 16 15 14 14 14 14 15 15 15 15 15 15 15 15 15
5 5 6 6 6 6 6 7 7 8 9 9 10 10 11 11 11 11 11 12 12 13 14 16 18 19 18 17 15 14 14 13 13 14 14 15 15 15 15 15 15 15 14 14
6 6 6 6 6 7 7 8 8 9 9 9 10 11 11 11 11 12 12 12 13 14 16 17 18 17 16 15 15 14 13 13 13 14 15 15 15 15 15 15 14 13 12 12
6 6 7 7 7 8 8 9 9 9 9 10 10 11 11 11 11 12 13 14 15 17 18 18 17 15 15 15 14 13 13 13 14 15 15 15 15 15 15 14 13 12 11 11
7 7 7 8 8 9 9 10 10 10 10 11 11 11 11 11 12 13 14 16 17 17 17 16 15 14 14 14 14 14 14 14 15 15 15 15 15 14 14 13 13 12 11 11
7 7 8 8 9 10 10 11 11 11 11 11 11 11 11 12 13 14 16 17 17 17 16 15 14 13 14 14 14 15 15 15 16 15 15 15 14 14 14 13 13 13 12 12
8 8 9 9 10 11 11 11 11 11 11 11 11 11 12 13 15 16 18 18 17 15 14 14 13 13 14 15 15 16 16 16 16 15 15 14 14 14 14 14 13 13 13 13
9 9 9 10 10 11 11 11 11 11 11 11 12 12 14 15 17 18 17 17 15 14 14 13 13 13 14 15 16 16 16 16 15 15 14 14 14 14 14 14 14 14 14 14
9 10 10 10 11 11 11 11 12 12 12 12 13 14 16 17 17 17 16 15 14 13 13 13 13 14 15 16 16 16 16 16 15 15 15 14 14 14 14 14 14 14 14 14
10 11 11 11 10 11 11 11 12 12 12 13 15 16 17 17 16 16 15 14 13 12 12 13 13 14 15 16 16 16 16 15 15 15 15 14 14 14 14 14 14 14 14 14
11 11 11 11 11 11 11 12 12 12 13 15 16 16 16 16 15 14 13 12 12 12 12 13 14 15 16 16 17 16 16 15 15 15 15 14 14 14 14 14 14 15 15 15
11 11 11 11 11 11 12 12 12 13 15 16 16 16 15 15 14 13 12 11 11 12 13 14 15 16 16 17 17 16 15 15 15 14 14 14 14 14 14 14 15 15 15 16
11 11 10 11 11 12 12 12 13 14 15 16 16 15 14 13 12 12 11 11 12 13 14 15 16 16 16 17 16 15 15 15 15 14 14 14 14 14 14 14 15 16 16 16
10 10 10 10 11 12 12 12 13 14 14 15 14 13 12 12 12 11 11 12 13 14 15 16 16 16 16 16 15 15 15 15 14 14 14 14 14 14 14 15 15 16 16 17
10 10 10 10 11 12 12 12 13 13 13 13 12 11 11 11 11 12 12 13 14 15 16 16 16 16 16 16 15 14 14 14 14 14 14 14 14 14 15 15 16 16 17 17
10 10 10 10 11 12 12 12 12 11 11 11 11 11 11 11 12 13 13 14 15 16 16 16 16 16 16 15 14 14 14 14 14 14 14 14 14 14 15 15 16 17 17 17
10 10 10 10 11 12 12 11 11 10 10 10 10 11 12 13 13 14 15 15 16 16 16 16 16 15 15 14 14 14 14 14 14 14 14 14 14 14 14 15 16 16 17 17
9 9 10 10 11 11 11 10 9 9 9 10 11 12 13 14 14 15 15 16 16 16 16 16 15 15 14 14 14 14 14 14 13 13 13 13 13 13 13 14 15 16 16 16
9 9 10 10 10 10 10 9 9 9 10 11 11 12 13 14 15 15 16 16 16 16 16 15 15 14 14 14 14 13 13 13 13 13 13 13 13 13 13 14 14 15 15 15